Location: Allaines
(49.9632°N, 2.9458°E)
Time: 00:39:04
(UTC+00:00)

Cosmos 1766 Rocket - Pass Details

Date: 09 April 2020
Orbit: 604 x 634 km, 82.5° (Epoch: 30 May)

Event Time Altitude Azimuth Distance (km) Brightness Sun altitude
Rises 20:45:47 0° 354° (N) 2,942 7.8 -19.7°
Reaches altitude 10° 20:48:07 10° 1° (N) 2,027 6.7 -19.9°
Maximum altitude 20:52:27 46° 75° (ENE) 856 4.0 -20.5°
Enters shadow 20:52:50 44° 91° (E) 870 3.9 -20.5°
